Wetbulb
50.53 50.31 50.18 50.22 50.07 50.09 50.03 50.21 51.03 51.98 52.11 51.73 51.86 51.15 51.09 51.31 52.05 46.82 43.04 45.07 42.56 40.96 44.39 46.83 47.34 42.14 42.77 42.90 41.44 45.92 46.57 48.25 44.82 41.05 40.54 39.61 38.54 40.35 39.05 40.26 38.88 39.75 39.20 38.77 38.87 36.76 37.21 52.74 52.03 46.26 49.03 51.33 52.09 51.84
50.46 50.30 49.99 49.52 49.59 49.95 49.87 49.92 50.86 51.92 51.97 51.58 51.67 51.19 50.94 50.90 51.80 50.55 40.00 45.66 46.66 41.70 44.42 49.62 50.74 50.81 48.43 47.95 45.07 45.92 46.53 46.08 48.03 43.53 44.26 43.11 41.17 40.52 37.91 37.02 43.38 39.66 43.74 41.94 42.14 41.89 49.47 50.58 50.93 52.03 52.30 51.62 51.03 50.62
49.79 49.97 49.60 49.18 49.12 49.62 49.88 49.92 50.47 51.71 51.89 51.63 51.69 51.10 50.70 51.37 51.50 49.68 41.77 42.52 42.46 40.53 41.36 42.23 45.59 50.53 50.26 50.77 50.52 44.25 46.79 48.08 47.10 49.90 46.61 45.30 43.60 42.94 38.69 40.21 40.01 44.56 46.71 43.44 42.99 46.87 47.85 50.83 52.12 53.15 53.22 52.62 53.08 53.27
49.28 49.54 49.57 49.50 49.17 49.56 49.89 49.79 50.09 51.47 51.81 51.86 51.63 51.08 50.99 51.33 51.06 50.71 41.41 42.54 41.40 40.73 36.28 39.43 50.95 48.05 52.00 49.71 50.33 49.26 48.69 47.98 47.85 48.87 45.11 43.64 42.32 44.19 40.58 42.20 41.42 44.95 46.69 43.41 43.68 45.57 49.15 52.03 52.69 52.09 54.05 54.64 53.94 55.03
49.30 49.58 49.59 49.76 49.18 49.16 49.67 49.52 49.78 50.99 51.52 51.76 52.03 51.36 51.02 51.15 50.55 47.46 43.46 43.28 43.96 40.64 35.86 38.13 44.90 47.72 49.95 50.29 49.17 49.03 47.96 47.24 45.54 44.08 43.54 42.34 43.84 43.97 43.52 43.35 42.00 46.62 43.95 41.87 40.87 46.85 47.56 49.24 52.72 54.04 53.40 53.71 53.77 54.25
49.35 49.16 49.36 49.61 49.24 49.27 49.57 49.55 49.93 50.87 51.44 51.86 51.91 51.38 51.16 50.72 50.22 42.37 38.45 43.63 45.74 43.56 40.01 34.98 42.66 44.72 47.89 48.64 48.75 46.87 47.51 46.69 45.55 44.48 43.73 44.76 46.61 44.83 40.51 40.34 45.60 47.53 51.27 48.71 46.20 51.84 51.67 52.48 54.29 55.03 52.43 52.44 54.69 54.15
49.18 49.15 49.22 49.14 49.16 49.17 49.49 49.54 50.21 50.79 51.43 51.42 51.19 50.68 50.26 49.86 43.53 39.35 38.39 43.81 47.57 43.52 40.69 37.14 38.00 43.94 46.51 45.79 45.71 45.77 46.46 46.52 45.91 43.92 42.98 43.56 44.03 44.90 40.98 38.65 45.16 49.53 50.51 51.77 52.25 53.02 49.63 52.17 50.53 52.55 52.62 53.53 53.32 53.50
49.05 49.06 49.01 49.12 49.13 49.24 49.62 49.80 50.36 51.11 51.22 50.90 50.28 49.71 49.50 49.45 46.83 40.75 45.03 47.94 46.12 41.13 42.20 37.36 38.53 41.47 44.87 42.26 41.68 44.67 43.00 43.81 44.39 43.96 43.96 42.25 43.27 42.59 38.70 42.64 46.30 51.19 50.18 51.41 51.92 51.76 51.00 51.58 52.16 52.31 52.96 53.47 52.10 52.11
48.92 49.04 49.06 49.08 49.41 49.28 49.60 49.89 50.78 50.73 50.46 50.33 49.88 49.81 44.58 41.57 38.11 40.84 51.60 52.59 44.90 45.26 40.34 39.62 36.57 38.42 47.53 42.89 43.49 43.37 43.75 40.08 43.87 41.57 41.74 43.49 40.47 38.89 42.64 44.45 47.87 50.19 48.44 48.87 52.26 53.81 52.84 51.89 50.85 51.04 51.96 52.38 50.94 52.60
48.68 49.04 49.32 49.14 49.07 49.39 49.72 50.28 50.53 50.41 50.00 49.76 44.66 40.65 36.65 42.04 51.62 52.53 46.38 42.63 42.08 41.66 42.18 37.96 40.64 38.58 45.96 44.61 41.65 41.70 41.80 39.61 37.76 41.31 42.82 39.98 38.87 44.49 48.50 48.30 48.35 49.62 48.87 48.90 48.39 49.13 49.27 48.83 49.71 51.61 52.24 53.44 53.95 54.24
48.69 48.99 49.08 48.79 49.01 49.39 49.92 50.33 50.24 49.24 48.17 41.56 38.66 41.38 45.83 52.24 45.24 43.10 38.36 37.96 38.44 38.14 39.04 39.45 39.65 37.86 45.13 42.82 44.36 46.16 44.42 43.29 37.88 40.04 40.35 37.76 37.16 46.24 50.76 51.18 50.88 51.19 50.11 50.38 51.75 51.57 50.66 50.87 51.34 52.51 53.56 53.15 52.67 52.34
48.88 48.83 48.85 49.20 49.27 49.83 50.29 50.16 49.47 44.01 41.71 42.91 45.89 48.85 46.88 44.85 40.26 38.81 36.54 37.80 37.82 35.98 39.28 38.06 39.25 41.31 44.01 50.08 44.28 44.86 41.98 42.38 37.84 45.43 42.64 38.54 43.32 47.23 50.50 51.65 52.15 51.44 52.53 52.74 53.72 53.85 54.89 55.61 55.01 53.62 52.49 51.56 51.17 50.06
48.85 49.15 49.01 49.08 49.65 50.30 50.31 49.78 48.96 48.78 48.15 47.61 45.35 42.79 40.66 39.75 33.79 35.21 33.52 35.75 36.32 40.57 42.70 40.88 39.06 42.08 45.62 48.53 45.63 44.50 40.71 39.47 46.15 40.56 40.84 42.86 46.08 49.36 47.76 47.70 48.42 50.33 52.47 53.05 53.62 54.88 54.58 53.40 52.94 52.21 50.57 50.67 49.85 48.60
49.03 48.87 48.94 49.86 50.20 50.17 49.87 49.33 49.76 48.24 43.95 41.28 40.01 32.39 36.88 34.86 35.73 35.23 36.12 39.93 43.31 46.52 46.12 42.44 39.98 41.56 44.76 43.90 43.56 39.89 42.44 44.00 40.38 38.22 39.56 46.52 47.93 48.92 50.10 51.54 50.66 49.92 51.12 52.32 53.41 53.78 52.82 51.52 50.80 51.35 50.18 48.99 48.03 47.06
49.19 49.43 49.87 49.74 50.06 50.10 49.57 49.58 49.36 46.01 43.55 40.31 38.58 31.95 35.67 41.51 44.11 44.14 42.78 43.20 45.39 47.20 45.60 44.76 43.53 43.41 42.23 41.70 41.77 40.84 39.68 39.05 41.04 40.10 44.63 46.12 47.65 49.34 49.53 50.60 50.72 50.87 50.39 50.70 53.60 53.94 52.95 51.46 50.60 49.01 48.30 47.31 47.01 46.71
49.95 49.19 47.76 50.12 50.18 49.71 49.36 48.43 44.57 45.13 41.97 40.38 38.79 36.24 38.59 38.96 39.64 41.60 40.57 42.67 46.19 44.70 45.13 44.99 42.36 40.02 40.17 40.05 39.67 38.91 38.75 37.29 40.93 44.94 48.36 48.55 48.99 49.41 51.09 52.78 53.02 51.86 50.85 50.92 52.26 53.29 52.96 51.55 49.50 48.23 47.81 47.12 46.40 45.96
49.13 46.27 49.72 49.70 49.51 49.09 48.81 44.19 42.89 42.28 41.44 40.64 38.56 40.74 40.97 41.35 40.89 43.87 45.13 45.62 49.19 45.46 42.20 44.09 41.28 39.73 42.40 39.80 39.62 41.45 39.39 42.22 46.31 47.80 48.88 49.06 49.46 50.98 51.37 51.22 51.32 51.11 50.05 50.10 52.30 52.41 52.39 49.81 48.87 48.09 46.32 46.77 46.59 46.59
45.84 47.57 49.74 49.24 47.16 46.80 44.65 46.09 43.09 42.09 37.29 37.43 36.08 38.46 40.66 42.18 42.16 44.10 47.20 48.71 46.10 44.39 45.15 44.07 44.98 41.32 40.53 39.45 40.03 42.54 47.62 47.85 48.25 48.86 50.12 51.38 52.15 52.32 51.44 50.74 51.30 48.71 48.77 50.01 50.37 51.04 51.21 50.53 48.28 50.43 49.39 48.36 47.18 46.40
47.60 47.75 49.47 49.32 48.35 44.22 41.09 42.54 42.21 38.67 39.83 41.41 40.19 40.87 43.36 42.87 44.26 47.11 48.08 48.96 50.45 50.78 48.15 45.67 42.69 41.45 42.69 45.00 46.66 47.04 47.47 47.22 48.84 50.57 50.35 50.82 50.69 49.47 47.41 47.95 48.29 48.84 49.24 49.07 50.83 48.97 48.56 46.77 48.56 48.72 48.38 47.86 43.88 44.62
49.62 49.66 50.08 50.32 49.90 45.20 43.06 42.83 45.04 40.54 38.59 40.95 42.20 41.56 43.02 43.08 45.50 46.97 48.19 49.69 48.92 47.70 45.05 44.98 44.89 46.97 47.24 48.57 50.78 50.96 51.32 52.10 49.56 47.61 45.23 45.37 46.21 46.57 47.24 47.05 47.28 49.09 50.73 47.70 48.03 46.01 45.76 47.92 46.69 45.02 45.93 47.38 46.26 42.02
49.06 48.32 49.34 48.38 47.11 46.24 44.51 42.40 40.21 40.70 40.39 39.49 43.75 44.21 43.06 47.29 46.24 47.25 48.01 50.76 49.02 47.38 47.09 49.40 49.55 50.69 52.28 51.42 51.75 51.96 51.29 48.65 45.52 45.34 44.76 45.21 47.09 46.40 46.24 47.60 50.13 46.30 45.66 46.52 47.51 45.69 44.45 43.40 44.54 45.66 48.57 45.46 46.24 42.40
48.32 50.44 48.39 48.35 43.99 44.31 41.77 43.91 39.62 42.92 40.86 42.18 44.59 43.27 44.94 46.06 46.95 48.40 50.49 47.50 47.45 48.70 50.01 49.76 50.46 50.56 49.86 50.12 51.83 51.71 52.40 50.31 48.36 45.72 47.50 47.36 46.08 43.72 44.82 47.28 48.09 46.55 44.72 43.95 44.74 45.10 44.39 43.14 42.36 44.29 45.17 43.61 42.34 41.10
49.67 48.26 45.33 44.07 37.38 35.22 35.98 45.55 40.64 42.91 40.75 45.24 47.43 45.97 45.37 45.50 47.18 49.16 46.13 47.68 47.79 50.48 50.04 49.35 49.89 49.50 49.67 49.55 50.78 50.55 49.31 47.39 46.77 46.73 45.52 45.01 44.96 45.83 46.76 45.19 44.88 44.20 43.51 44.25 45.66 44.06 42.05 42.06 42.80 42.36 43.25 43.12 41.93 40.37
49.35 46.12 42.83 41.77 39.12 38.90 46.41 45.40 46.23 46.03 46.17 43.83 43.65 42.48 42.45 42.90 45.54 42.67 40.99 43.77 46.01 48.08 49.49 49.39 48.98 47.91 48.02 47.71 48.38 47.06 48.27 49.23 46.45 45.83 46.92 46.29 45.76 45.41 46.01 44.35 43.72 44.06 44.31 43.87 44.03 43.21 41.80 41.68 41.28 41.55 42.01 42.25 41.91 40.18
40.30 40.90 43.13 37.08 47.53 46.00 44.72 43.64 43.79 43.49 41.55 42.69 41.92 41.39 42.42 44.20 39.37 40.46 41.84 44.83 47.92 47.50 46.83 48.38 49.25 48.92 48.45 48.16 46.69 46.99 51.20 49.09 45.93 47.71 48.56 50.10 49.97 48.30 44.45 45.49 44.59 43.02 43.86 43.39 42.10 42.94 42.30 41.90 41.47 41.94 42.06 41.37 41.25 41.25
37.36 45.89 40.99 44.49 43.66 43.26 43.20 43.09 43.83 43.53 44.33 44.07 43.20 44.91 44.77 42.17 39.04 38.34 42.84 46.36 45.97 46.66 47.46 47.99 47.06 45.94 43.54 44.84 44.12 44.97 49.87 49.12 48.52 47.44 46.24 46.76 47.35 46.11 44.09 41.62 41.20 42.41 43.82 43.48 43.30 43.30 43.31 42.95 43.15 43.52 42.17 41.90 40.43 42.68
40.95 45.18 46.97 48.42 45.81 45.59 45.66 45.72 46.33 43.25 42.06 41.57 42.81 44.13 41.16 36.54 38.41 42.72 47.14 48.71 46.02 46.04 47.31 47.34 45.71 44.88 43.73 43.55 44.53 45.72 46.51 47.60 47.30 48.30 46.04 45.96 46.19 46.67 45.75 42.73 41.65 42.14 43.96 45.33 44.16 43.83 43.65 43.60 43.11 43.32 42.87 42.72 42.65 43.02
45.21 45.54 42.52 44.35 44.20 45.22 43.78 44.13 44.65 43.31 44.10 45.21 44.01 41.51 42.13 41.12 39.40 47.00 47.99 49.94 46.93 46.63 48.17 50.20 47.97 46.67 45.19 44.51 45.04 46.13 45.78 45.79 47.22 46.99 45.27 45.14 44.98 45.19 44.94 44.88 43.56 42.38 44.52 44.88 44.22 43.96 43.35 43.52 43.09 43.57 43.73 42.80 43.48 45.29
44.32 46.73 46.88 44.83 45.58 44.21 43.74 42.72 42.46 43.73 44.38 42.83 40.75 40.27 41.66 44.31 47.39 48.75 48.49 47.74 48.27 46.74 45.56 45.46 48.50 49.28 49.01 48.66 46.38 45.60 45.43 45.61 45.33 45.82 45.66 44.04 43.01 43.70 45.47 44.51 42.82 43.65 44.44 43.75 41.23 42.71 44.08 44.11 44.01 43.35 43.59 42.21 43.27 46.64
45.29 47.69 44.60 44.78 44.51 43.86 45.98 46.71 44.88 46.29 46.63 46.13 46.10 45.24 45.75 47.23 49.16 49.61 47.77 49.22 49.06 46.50 47.45 48.11 46.64 45.91 44.76 44.32 44.28 44.42 45.10 45.23 44.77 43.75 41.83 40.98 41.93 45.09 46.98 45.62 45.44 45.15 45.26 47.15 47.36 46.45 41.77 41.91 43.20 44.75 42.86 42.21 42.68 42.36
48.17 46.88 45.83 46.15 44.09 46.21 48.81 49.05 49.19 47.86 47.54 46.92 45.97 44.53 43.75 44.78 46.87 47.91 47.35 47.24 47.19 47.49 46.95 45.52 45.37 45.28 44.66 43.90 43.76 43.66 42.66 44.23 44.71 44.39 43.19 42.70 42.60 44.09 44.27 44.41 44.74 46.06 47.34 45.63 47.02 46.85 45.86 45.03 46.32 45.37 44.74 44.90 44.05 42.57
47.55 45.97 44.91 43.32 43.96 47.74 49.56 48.39 45.78 46.06 46.04 44.53 43.58 45.17 44.81 44.46 42.96 45.99 50.42 49.05 46.84 46.00 45.68 46.86 45.28 44.84 46.17 45.85 45.26 44.54 44.58 45.66 44.56 43.61 42.17 41.87 41.70 42.57 42.43 42.69 43.83 46.12 47.02 46.18 47.87 47.25 47.33 45.82 44.63 43.47 43.72 45.32 45.51 45.53
47.03 47.44 47.45 47.77 47.06 46.14 46.83 46.55 45.81 46.83 47.64 46.37 46.59 47.36 47.05 44.19 42.60 46.18 51.74 52.18 50.83 48.69 47.06 47.45 47.19 47.68 47.68 47.66 46.71 46.40 44.83 44.84 42.70 40.17 40.08 38.86 38.18 38.60 38.76 41.35 43.41 45.02 44.93 44.46 44.32 44.55 45.39 46.36 46.13 46.21 45.56 45.40 45.36 45.19
MSLP
1019.47 1019.51 1019.52 1019.50 1019.43 1019.33 1019.25 1019.06 1018.85 1018.64 1018.48 1018.39 1018.41 1018.35 1018.24 1018.00 1017.80 1017.82 1017.60 1016.88 1017.13 1016.26 1014.09 1012.92 1012.66 1012.56 1012.16 1011.60 1010.90 1009.43 1008.69 1008.51 1008.97 1009.99 1010.93 1011.18 1010.91 1010.04 1009.86 1009.60 1009.63 1010.50 1011.22 1011.77 1011.88 1011.72 1010.34 1008.96 1008.72 1009.08 1009.73 1010.19 1010.29 1010.59
1018.88 1018.98 1019.06 1019.10 1019.10 1019.03 1018.95 1018.73 1018.46 1018.35 1018.19 1018.17 1018.25 1018.12 1018.12 1017.90 1017.71 1017.60 1017.85 1016.76 1016.44 1016.54 1014.07 1012.41 1011.77 1011.36 1011.58 1011.17 1011.30 1010.53 1010.54 1010.24 1010.32 1010.74 1011.29 1011.47 1011.41 1010.98 1011.11 1011.00 1010.01 1010.54 1010.45 1010.77 1011.27 1010.67 1010.11 1009.53 1009.36 1009.53 1009.73 1010.32 1010.64 1010.75
1018.35 1018.49 1018.60 1018.64 1018.59 1018.53 1018.45 1018.40 1018.31 1018.13 1017.93 1017.89 1017.96 1017.90 1017.87 1017.72 1017.58 1017.66 1017.85 1017.17 1016.44 1015.97 1013.76 1012.31 1010.86 1010.15 1009.91 1010.08 1010.29 1010.84 1010.77 1010.46 1010.60 1010.57 1011.21 1011.78 1011.97 1011.76 1011.97 1011.85 1011.14 1010.47 1010.17 1010.70 1011.05 1010.89 1010.75 1010.49 1010.19 1009.92 1010.03 1010.39 1010.61 1010.78
1017.80 1017.92 1018.04 1018.14 1018.18 1018.14 1018.13 1018.15 1018.03 1017.82 1017.59 1017.65 1017.75 1017.70 1017.66 1017.56 1017.45 1017.49 1017.89 1017.43 1017.38 1016.75 1015.41 1012.55 1010.57 1010.11 1009.26 1009.39 1009.71 1009.96 1010.41 1010.53 1010.76 1010.90 1011.74 1012.31 1012.44 1011.90 1012.18 1012.08 1011.94 1011.35 1011.03 1011.59 1012.03 1011.81 1011.48 1011.47 1011.13 1010.75 1010.66 1010.72 1010.77 1011.16
1017.16 1017.30 1017.46 1017.60 1017.68 1017.71 1017.75 1017.71 1017.63 1017.54 1017.49 1017.48 1017.46 1017.50 1017.52 1017.47 1017.34 1017.29 1017.25 1016.96 1016.98 1017.48 1016.43 1013.98 1011.62 1009.68 1008.91 1008.79 1009.19 1009.54 1010.23 1010.97 1011.65 1012.11 1012.66 1012.80 1012.16 1012.18 1012.46 1012.47 1012.54 1012.05 1012.24 1012.23 1012.32 1011.94 1012.08 1012.84 1012.33 1011.59 1011.55 1011.70 1011.41 1011.51
1016.48 1016.66 1016.90 1017.08 1017.25 1017.37 1017.42 1017.44 1017.42 1017.30 1017.19 1017.20 1017.20 1017.32 1017.35 1017.37 1017.25 1017.39 1017.11 1016.63 1016.52 1016.91 1016.72 1015.02 1011.92 1009.96 1008.98 1008.74 1009.15 1009.74 1010.38 1011.09 1011.72 1012.46 1012.86 1012.52 1011.98 1012.05 1012.86 1013.23 1012.87 1012.59 1012.33 1012.15 1012.17 1012.05 1012.34 1012.81 1012.54 1012.07 1011.89 1012.07 1012.11 1012.06
1015.92 1016.16 1016.37 1016.59 1016.82 1016.98 1017.10 1017.18 1017.12 1016.98 1016.97 1016.98 1017.06 1017.20 1017.17 1017.16 1017.44 1017.42 1017.16 1016.71 1016.18 1016.94 1016.70 1015.43 1013.08 1010.27 1009.05 1009.41 1009.95 1010.26 1010.51 1011.20 1011.78 1012.55 1012.85 1012.76 1012.46 1012.53 1013.13 1013.34 1012.87 1013.13 1012.88 1012.65 1012.29 1012.34 1012.85 1013.02 1013.08 1012.86 1012.56 1012.46 1012.53 1012.67
1015.39 1015.67 1015.91 1016.16 1016.38 1016.55 1016.72 1016.82 1016.78 1016.70 1016.75 1016.84 1017.03 1017.08 1017.05 1017.05 1016.99 1016.82 1015.52 1015.30 1016.08 1016.70 1016.42 1015.54 1013.07 1010.83 1009.27 1010.10 1010.64 1010.55 1011.20 1011.63 1012.02 1012.40 1012.61 1012.68 1012.66 1012.85 1013.32 1012.78 1012.58 1012.87 1013.10 1012.91 1012.44 1011.98 1012.25 1012.53 1012.56 1012.75 1012.50 1012.67 1012.83 1012.57
1014.98 1015.28 1015.52 1015.80 1016.05 1016.25 1016.39 1016.42 1016.40 1016.46 1016.62 1016.78 1016.95 1017.06 1017.32 1017.27 1016.88 1015.76 1014.74 1014.92 1015.55 1016.50 1016.29 1015.53 1013.87 1011.70 1009.84 1010.09 1010.49 1011.06 1011.31 1012.40 1012.05 1012.45 1012.52 1012.72 1012.88 1012.95 1012.63 1012.61 1012.50 1012.28 1012.46 1012.48 1012.42 1012.14 1012.14 1012.18 1012.43 1012.67 1012.64 1012.91 1013.00 1013.11
1014.82 1015.04 1015.28 1015.60 1015.87 1016.04 1016.12 1016.09 1016.11 1016.34 1016.66 1016.89 1017.22 1017.28 1017.09 1016.09 1015.28 1015.06 1015.11 1015.50 1015.86 1015.86 1015.87 1015.47 1013.76 1012.30 1010.66 1010.66 1010.91 1011.41 1011.62 1012.00 1012.35 1011.95 1011.72 1012.39 1012.82 1012.43 1012.09 1012.02 1011.98 1011.98 1012.18 1012.14 1012.15 1012.36 1012.36 1012.41 1012.90 1013.02 1013.26 1013.47 1013.66 1013.67
1014.74 1014.94 1015.26 1015.53 1015.73 1015.85 1015.91 1015.91 1016.15 1016.57 1016.94 1017.26 1017.29 1016.99 1016.25 1015.31 1015.44 1015.65 1015.70 1015.97 1016.00 1015.88 1015.09 1014.02 1013.22 1012.61 1010.92 1010.76 1011.10 1011.30 1011.64 1011.84 1012.01 1011.91 1011.90 1012.30 1012.56 1012.25 1011.98 1011.83 1011.93 1012.12 1012.17 1012.04 1012.09 1012.23 1012.43 1012.49 1013.03 1013.37 1013.80 1014.04 1014.42 1014.46
1014.74 1015.02 1015.27 1015.47 1015.59 1015.69 1015.77 1016.08 1016.40 1016.82 1016.99 1016.94 1016.80 1016.75 1016.54 1016.15 1016.05 1016.03 1015.72 1015.43 1015.32 1014.80 1013.39 1012.73 1012.19 1011.85 1011.14 1010.59 1011.08 1011.59 1011.65 1011.84 1011.90 1011.72 1011.85 1012.36 1012.33 1011.85 1011.82 1011.79 1011.96 1012.12 1012.13 1012.10 1012.07 1012.48 1012.89 1013.42 1013.72 1014.07 1014.33 1014.62 1014.86 1015.18
1014.88 1015.11 1015.28 1015.39 1015.45 1015.49 1015.92 1016.38 1016.74 1016.78 1016.69 1016.73 1016.87 1016.98 1016.93 1016.53 1016.28 1015.85 1015.20 1014.73 1014.17 1013.08 1011.85 1011.33 1011.50 1011.12 1011.09 1011.09 1011.72 1011.86 1011.86 1011.82 1011.52 1012.08 1012.15 1012.37 1012.21 1012.17 1012.04 1011.84 1011.95 1011.92 1011.95 1012.33 1012.60 1013.04 1013.54 1014.28 1014.59 1014.72 1015.09 1015.46 1015.59 1015.95
1015.00 1015.19 1015.30 1015.31 1015.62 1015.88 1016.31 1016.75 1016.99 1017.03 1017.29 1017.37 1016.86 1017.19 1016.81 1015.95 1015.45 1014.84 1014.59 1014.04 1012.64 1011.87 1011.28 1010.90 1010.95 1010.68 1010.69 1011.23 1011.70 1011.90 1011.56 1011.38 1011.90 1012.39 1012.32 1012.24 1012.16 1012.34 1012.13 1012.12 1012.09 1012.32 1012.33 1012.69 1013.14 1013.56 1014.11 1014.67 1014.97 1015.43 1015.82 1015.93 1016.07 1016.18
1015.13 1015.37 1015.51 1015.70 1015.97 1016.33 1016.71 1016.99 1017.23 1017.37 1017.54 1017.43 1017.34 1016.91 1016.08 1015.29 1014.69 1014.41 1014.13 1013.35 1012.47 1011.93 1011.38 1011.01 1010.78 1010.73 1010.97 1011.01 1011.14 1011.14 1011.34 1011.38 1011.63 1012.03 1012.05 1012.26 1012.32 1012.35 1012.45 1012.41 1012.56 1012.64 1012.82 1013.10 1013.27 1013.79 1014.34 1014.87 1015.31 1015.84 1016.22 1016.19 1016.09 1016.39
1015.41 1015.59 1015.82 1016.09 1016.44 1016.80 1017.12 1017.42 1017.70 1017.63 1017.43 1017.24 1016.97 1016.53 1015.49 1014.82 1014.30 1014.09 1013.89 1013.36 1012.40 1012.24 1011.98 1011.99 1011.44 1011.41 1011.38 1011.33 1011.44 1011.50 1011.66 1011.84 1012.01 1011.97 1012.18 1012.40 1012.49 1012.65 1012.57 1012.56 1012.83 1012.88 1013.09 1013.37 1013.67 1013.99 1014.43 1015.01 1015.46 1016.02 1016.26 1016.54 1016.75 1016.86
1015.68 1015.82 1016.05 1016.37 1016.81 1017.17 1017.37 1017.59 1017.73 1017.48 1017.12 1016.58 1015.99 1015.44 1015.21 1014.62 1014.17 1013.75 1013.62 1013.29 1012.67 1012.11 1011.94 1011.96 1011.91 1011.62 1011.59 1011.60 1011.84 1011.88 1011.89 1011.82 1011.98 1012.25 1012.44 1012.37 1012.60 1012.64 1012.77 1012.86 1013.04 1013.25 1013.43 1013.71 1014.06 1014.39 1014.71 1015.10 1015.61 1016.23 1016.53 1016.75 1016.78 1016.84
1016.15 1016.27 1016.39 1016.84 1017.22 1017.49 1017.59 1017.52 1017.59 1017.01 1016.70 1016.20 1015.98 1015.31 1014.85 1014.33 1013.90 1013.47 1013.10 1012.82 1013.03 1012.48 1012.13 1011.67 1011.69 1011.94 1011.66 1011.78 1012.08 1012.08 1012.05 1012.18 1012.37 1012.29 1012.47 1012.57 1012.65 1012.68 1012.81 1013.02 1013.17 1013.43 1013.73 1014.11 1014.33 1014.63 1014.95 1015.32 1015.71 1015.94 1015.98 1016.29 1016.70 1016.82
1016.57 1016.71 1016.88 1017.22 1017.48 1017.51 1017.69 1017.57 1017.57 1017.12 1016.25 1015.74 1015.39 1015.02 1014.49 1013.98 1013.43 1013.08 1012.53 1011.73 1011.74 1011.57 1011.26 1011.57 1011.87 1011.85 1011.70 1011.46 1011.60 1012.00 1012.25 1012.42 1012.56 1012.76 1012.83 1012.78 1012.80 1012.89 1012.94 1013.08 1013.42 1013.67 1013.95 1014.46 1014.61 1014.90 1015.22 1015.17 1015.23 1015.45 1015.83 1016.24 1016.57 1016.75
1016.62 1016.96 1017.25 1017.41 1017.37 1017.37 1017.05 1017.12 1017.20 1017.06 1016.26 1015.76 1015.19 1014.75 1014.20 1013.69 1013.06 1012.30 1011.95 1011.20 1011.05 1011.13 1011.25 1011.20 1011.36 1011.24 1011.11 1011.47 1011.48 1011.84 1012.25 1012.26 1012.73 1013.07 1013.31 1013.20 1013.01 1012.99 1013.14 1013.28 1013.63 1013.91 1014.29 1014.62 1014.87 1015.00 1015.31 1015.33 1015.38 1015.41 1015.53 1015.68 1016.33 1016.89
1016.85 1017.26 1017.28 1017.47 1017.57 1017.34 1017.10 1017.07 1017.02 1016.77 1016.16 1015.62 1014.62 1014.18 1013.66 1012.94 1012.53 1012.09 1011.54 1010.94 1010.79 1011.51 1011.01 1011.14 1011.37 1011.48 1011.59 1012.02 1011.75 1012.26 1012.61 1012.83 1013.04 1013.07 1013.29 1013.45 1013.21 1013.23 1013.38 1013.54 1013.69 1014.13 1014.46 1014.88 1015.19 1015.47 1015.64 1015.57 1015.47 1015.32 1015.30 1015.52 1016.00 1016.56
1017.30 1017.30 1017.33 1017.53 1017.59 1017.40 1017.17 1016.80 1016.65 1015.92 1015.59 1014.35 1013.45 1012.82 1012.65 1011.70 1011.51 1011.24 1011.00 1011.21 1011.58 1011.50 1011.41 1011.71 1011.87 1012.03 1012.26 1012.39 1012.49 1012.45 1012.51 1012.70 1012.94 1013.07 1013.17 1013.28 1013.62 1013.87 1013.91 1014.02 1014.20 1014.58 1014.81 1015.04 1015.09 1015.46 1015.74 1015.53 1015.33 1015.22 1015.20 1015.51 1016.02 1016.27
1017.40 1017.41 1017.34 1017.25 1017.43 1016.92 1016.29 1015.91 1015.64 1014.71 1014.17 1012.97 1012.68 1012.34 1012.43 1012.34 1012.00 1011.54 1012.06 1012.38 1012.48 1012.23 1012.11 1012.23 1012.34 1012.30 1012.52 1012.63 1012.62 1012.78 1012.83 1012.96 1013.33 1013.43 1013.50 1013.58 1013.66 1013.89 1014.12 1014.22 1014.26 1014.59 1014.90 1015.06 1014.98 1015.34 1015.57 1015.31 1015.26 1015.30 1015.42 1015.57 1016.00 1016.39
1017.36 1016.87 1016.24 1016.25 1016.25 1015.07 1014.24 1013.92 1013.51 1012.96 1012.59 1012.29 1012.43 1012.71 1012.98 1012.90 1012.71 1012.76 1013.35 1013.50 1013.29 1012.84 1012.75 1012.83 1012.85 1013.20 1013.20 1013.18 1013.30 1013.31 1013.19 1013.21 1013.45 1013.63 1013.65 1013.66 1013.97 1014.13 1014.15 1014.45 1014.51 1014.59 1014.72 1014.96 1015.10 1015.32 1015.36 1015.33 1015.22 1015.28 1015.32 1015.52 1015.95 1016.43
1016.67 1015.70 1015.13 1014.49 1014.07 1013.36 1012.58 1012.33 1012.14 1012.08 1012.16 1012.37 1012.45 1012.93 1013.36 1013.35 1013.78 1014.02 1014.19 1013.85 1013.50 1013.22 1013.09 1013.02 1013.15 1013.23 1013.56 1013.74 1013.71 1013.47 1013.23 1013.22 1013.54 1013.68 1013.63 1013.60 1013.88 1014.42 1014.64 1014.63 1014.70 1014.76 1014.71 1014.99 1015.34 1015.36 1015.34 1015.25 1015.23 1015.25 1015.33 1015.39 1015.66 1016.08
1014.79 1013.61 1013.22 1012.20 1012.29 1012.09 1011.92 1011.83 1011.74 1011.73 1011.77 1012.03 1012.48 1012.70 1013.07 1013.98 1014.51 1014.64 1014.37 1013.94 1013.73 1013.43 1013.35 1013.36 1013.47 1013.61 1013.86 1013.76 1013.99 1013.73 1013.51 1013.38 1013.52 1013.79 1013.89 1013.56 1013.78 1014.21 1014.87 1015.11 1015.16 1015.16 1014.78 1014.83 1015.01 1015.16 1015.18 1015.16 1015.21 1015.36 1015.49 1015.38 1015.37 1015.63
1013.57 1012.71 1011.88 1011.35 1011.39 1011.35 1011.48 1011.36 1011.30 1011.69 1011.91 1012.18 1012.43 1012.75 1013.38 1014.05 1014.49 1014.45 1013.86 1013.54 1013.50 1013.25 1013.13 1013.14 1013.32 1013.59 1013.87 1013.83 1013.70 1013.51 1013.47 1013.50 1013.66 1013.80 1013.86 1013.84 1013.98 1014.10 1014.44 1014.79 1015.06 1015.18 1014.84 1014.77 1015.00 1015.05 1015.18 1015.22 1015.21 1015.26 1015.37 1015.33 1015.34 1015.11
1012.78 1012.35 1012.15 1011.80 1011.61 1011.38 1011.60 1011.65 1011.79 1012.01 1011.92 1011.86 1012.26 1013.01 1013.60 1014.00 1014.27 1014.03 1013.62 1013.26 1013.14 1013.02 1012.98 1013.05 1013.05 1013.28 1013.59 1013.75 1013.69 1013.84 1013.88 1013.89 1013.77 1013.91 1013.86 1014.10 1014.17 1014.21 1014.38 1014.56 1014.65 1014.65 1014.71 1014.77 1014.81 1014.84 1014.99 1015.01 1015.09 1015.15 1015.22 1015.33 1015.27 1015.09
1012.50 1012.13 1011.84 1011.89 1011.84 1011.84 1011.98 1012.13 1012.25 1012.25 1012.20 1012.19 1012.86 1013.43 1013.74 1013.71 1013.58 1013.45 1013.17 1013.10 1013.01 1013.15 1013.33 1013.42 1013.58 1013.54 1013.89 1014.11 1014.29 1014.46 1014.40 1014.48 1014.47 1014.65 1014.84 1015.15 1015.18 1015.10 1014.68 1014.68 1014.81 1014.85 1014.81 1014.84 1014.82 1014.80 1014.78 1014.85 1014.97 1015.10 1015.23 1015.39 1015.33 1015.12
1012.45 1012.00 1012.33 1012.26 1012.28 1012.35 1012.14 1011.99 1012.46 1012.58 1012.73 1012.82 1013.15 1013.63 1013.82 1013.66 1013.50 1013.22 1013.09 1013.22 1013.44 1013.52 1013.67 1013.79 1013.99 1014.10 1014.54 1014.68 1015.00 1015.18 1015.16 1015.06 1015.19 1015.48 1015.68 1015.73 1015.74 1015.41 1015.11 1014.90 1014.82 1014.74 1014.60 1014.68 1014.71 1014.70 1014.67 1014.85 1014.91 1014.88 1015.14 1015.27 1015.34 1015.31
1012.22 1012.41 1012.61 1012.69 1012.65 1012.36 1012.22 1012.29 1012.46 1012.73 1013.14 1013.46 1013.61 1014.06 1014.35 1014.19 1013.88 1013.51 1013.47 1013.41 1013.53 1013.64 1014.02 1014.26 1014.46 1014.48 1014.83 1014.97 1015.19 1015.58 1015.90 1015.66 1015.33 1015.34 1015.38 1015.42 1015.37 1015.24 1015.13 1014.93 1014.69 1014.52 1014.37 1014.25 1014.26 1014.33 1014.48 1014.84 1014.89 1014.81 1014.96 1015.17 1015.13 1015.10
1012.69 1012.84 1013.01 1013.15 1013.12 1012.67 1012.44 1012.77 1013.12 1013.48 1013.85 1014.20 1014.46 1014.42 1014.62 1014.67 1014.72 1014.35 1013.66 1013.59 1014.01 1014.21 1014.27 1014.24 1014.48 1014.67 1014.57 1014.71 1014.79 1014.82 1014.88 1015.32 1015.48 1015.39 1015.29 1015.25 1015.23 1015.21 1015.08 1014.95 1014.78 1014.55 1014.44 1014.40 1014.30 1014.42 1014.49 1014.61 1014.71 1014.71 1014.71 1014.69 1014.66 1014.68
1012.70 1012.76 1012.83 1013.04 1013.17 1013.04 1012.97 1013.11 1013.37 1013.95 1014.18 1014.71 1014.91 1014.85 1014.89 1014.96 1014.92 1014.63 1013.97 1013.76 1014.09 1014.20 1014.29 1014.14 1014.13 1014.09 1014.23 1014.26 1014.55 1014.86 1015.02 1015.15 1015.21 1015.24 1015.23 1015.24 1015.24 1015.17 1015.12 1015.03 1014.94 1014.79 1014.73 1014.72 1014.72 1014.58 1014.51 1014.27 1014.20 1014.25 1014.27 1014.28 1014.20 1014.18
Wind_Speed
12 11 10 10 10 10 10 11 12 12 9 8 8 7 8 9 9 4 5 4 2 3 7 4 3 2 5 4 3 7 4 7 5 6 4 3 3 4 2 3 4 6 5 5 3 3 7 4 3 6 7 4 6 3
13 11 10 10 11 11 10 11 12 11 8 7 7 7 7 7 7 5 3 4 3 4 6 6 15 15 11 15 2 4 2 2 1 5 3 3 1 2 3 2 4 2 6 5 7 7 4 3 6 1 5 6 3 4
12 11 11 11 12 11 10 10 11 10 8 7 7 6 6 6 6 2 3 4 4 3 6 2 5 6 8 11 6 3 3 3 4 3 4 2 4 2 3 1 2 7 1 4 4 4 3 6 3 4 4 6 4 2
13 13 12 12 12 11 10 9 10 10 8 7 7 6 6 6 6 3 1 2 0 3 2 8 5 7 7 5 8 5 4 4 1 3 3 3 2 1 2 3 2 4 5 3 2 3 6 9 7 3 3 3 3 9
15 14 13 12 12 10 9 9 10 9 8 7 7 6 5 6 7 4 3 4 3 3 2 7 13 7 7 6 8 5 5 3 3 4 3 1 1 4 2 3 1 3 2 2 5 3 7 3 4 6 10 5 5 8
14 13 13 12 12 10 9 9 9 9 8 7 6 5 5 6 5 3 4 3 2 2 0 4 6 7 4 5 8 5 4 3 3 4 2 3 3 4 2 3 2 2 5 2 2 5 7 3 6 5 6 4 3 4
13 13 12 13 11 10 9 8 8 9 7 6 6 4 4 4 2 2 4 4 5 2 0 5 5 6 4 4 2 3 3 2 4 2 1 2 2 5 3 3 3 7 5 5 3 6 5 5 1 3 2 1 2 4
12 12 12 12 11 10 7 7 9 8 7 6 5 4 3 5 4 4 4 11 5 1 0 3 6 5 3 2 1 1 2 3 2 4 2 3 1 3 2 5 3 10 6 4 5 5 7 6 3 3 1 1 4 5
9 8 10 11 9 7 7 7 8 7 6 7 4 1 3 2 1 5 10 6 2 3 2 2 3 4 2 2 3 3 4 2 2 3 3 4 2 4 7 6 6 8 8 8 3 4 6 6 3 3 6 6 6 6
7 7 8 8 7 7 7 9 7 8 9 7 3 1 2 3 8 4 4 3 2 2 1 3 3 4 3 2 1 4 2 4 3 6 3 4 4 1 5 7 6 6 6 6 5 4 4 5 6 6 8 7 7 7
5 7 8 7 6 6 7 5 12 12 6 2 1 2 3 9 4 2 1 3 2 3 4 5 6 3 4 2 3 1 3 0 3 5 6 3 2 5 6 5 5 6 4 1 5 4 5 7 8 7 11 10 8 8
6 7 6 5 5 6 6 13 14 3 3 5 2 1 3 2 0 2 4 2 3 5 4 5 6 6 4 3 4 3 2 2 3 1 3 2 4 2 3 5 5 6 7 8 13 12 13 11 11 9 8 9 11 10
7 6 6 5 6 8 13 12 8 3 4 1 0 2 1 2 1 3 3 4 4 5 5 4 2 5 1 4 2 2 2 4 2 3 3 3 2 2 3 3 6 7 8 9 9 12 13 10 8 9 9 8 9 8
6 5 4 5 9 10 13 11 7 2 4 2 1 1 2 3 3 4 3 4 5 3 4 1 2 4 3 4 5 4 5 4 4 4 5 3 5 6 5 4 7 7 8 12 12 12 12 10 10 10 8 5 7 7
5 7 7 9 11 11 11 8 2 3 1 1 1 2 5 4 3 2 3 5 4 4 4 4 3 4 2 3 1 2 1 3 1 5 3 3 5 6 4 4 6 6 7 7 10 11 11 10 10 8 5 5 6 6
11 7 4 11 10 10 9 6 1 1 1 2 4 4 5 4 3 1 2 4 4 1 1 1 0 2 2 3 2 4 2 3 3 1 4 4 4 4 5 6 6 6 6 6 6 9 10 10 10 7 6 3 2 4
6 2 9 11 11 10 8 1 2 3 3 3 4 4 6 7 5 1 2 3 4 4 1 2 2 0 1 2 2 2 4 3 5 4 3 5 6 6 6 6 6 6 7 6 6 7 7 7 8 6 6 5 5 5
2 5 12 11 7 4 1 1 2 2 4 3 3 4 3 2 3 3 4 3 1 3 4 3 3 1 3 4 1 2 1 2 3 4 4 4 4 5 4 6 6 7 7 7 7 6 6 7 6 5 6 6 5 5
3 4 9 9 3 1 3 2 2 3 5 3 3 3 3 3 4 4 6 8 5 5 3 3 3 2 2 2 4 3 3 2 4 4 3 3 3 4 4 6 6 6 7 6 4 4 4 6 3 4 4 3 4 3
10 9 8 6 6 2 2 1 1 2 3 2 3 3 3 3 4 3 7 3 3 3 3 1 2 2 1 2 3 4 4 4 3 4 2 1 2 5 4 4 5 6 5 6 5 5 3 2 2 1 4 4 4 4
2 2 2 2 2 4 2 2 1 2 3 3 3 2 3 2 3 3 3 1 3 4 3 2 3 2 6 7 4 2 2 3 3 4 4 1 2 1 2 4 9 5 5 4 4 3 3 2 2 3 2 3 4 6
2 2 1 0 1 2 3 1 2 3 3 3 4 3 4 2 2 3 0 5 3 3 3 4 4 7 5 3 3 2 3 4 4 4 6 5 4 4 4 4 5 3 3 3 5 5 3 2 1 3 4 4 6 6
5 2 2 1 0 3 6 6 4 4 3 2 2 2 4 5 5 4 4 4 3 4 3 4 4 5 6 4 6 6 5 7 5 4 4 3 3 4 3 3 4 5 4 2 3 4 3 3 6 5 4 2 5 4
3 3 4 6 7 5 3 5 4 4 3 5 9 11 4 2 4 5 4 3 3 3 3 3 4 4 5 5 4 3 2 3 3 2 2 4 3 3 4 4 3 3 4 4 5 4 3 3 4 4 3 5 6 5
1 5 3 3 5 4 4 4 5 5 6 5 4 5 4 5 5 5 4 5 5 3 2 2 3 2 3 1 0 1 3 3 3 1 2 1 1 4 3 3 4 3 3 5 3 4 2 2 2 2 2 3 6 7
3 5 4 4 1 3 3 3 4 2 2 3 3 3 3 4 4 3 3 2 2 3 3 3 3 4 3 2 3 1 1 1 3 3 3 4 4 5 4 4 4 4 2 4 3 2 1 3 4 7 4 2 3 7
5 4 4 2 3 3 4 3 4 5 3 2 1 2 3 4 3 2 3 2 1 2 1 3 5 4 3 1 1 1 2 3 4 3 4 5 5 5 5 5 3 3 1 6 5 5 5 4 4 3 3 3 5 4
2 2 4 6 4 3 4 3 4 2 2 2 4 5 3 3 2 2 2 3 2 1 2 0 3 4 4 3 3 4 4 3 2 4 4 4 3 4 5 3 3 6 4 3 3 2 2 3 3 2 3 3 4 4
3 5 5 7 4 3 3 4 3 3 1 4 4 4 2 0 2 2 3 2 3 2 2 3 2 3 4 4 5 5 5 6 8 8 6 3 4 3 2 3 3 3 3 3 2 4 4 2 2 1 2 2 4 2
5 2 5 6 5 5 2 4 3 2 3 3 3 4 4 3 2 2 3 4 2 1 3 5 4 5 4 5 4 6 4 5 5 5 4 3 2 4 4 2 4 2 4 4 5 4 5 1 3 1 2 1 2 2
2 4 4 5 4 4 3 3 4 4 4 3 2 5 3 1 5 3 3 2 4 5 5 5 5 4 5 5 4 5 2 3 5 6 3 1 1 1 2 3 4 4 2 1 2 6 3 1 2 4 6 5 5 4
3 2 3 4 2 4 5 3 2 3 3 3 1 3 3 4 2 4 3 3 5 4 3 5 5 3 5 3 3 3 9 5 4 3 2 1 2 2 2 3 4 4 5 4 3 4 5 5 4 5 5 7 6 6
2 2 1 1 3 2 1 3 3 6 4 4 3 3 2 3 1 3 4 3 6 4 2 2 4 4 6 5 6 5 6 5 7 6 5 1 1 1 2 2 2 4 5 5 5 3 4 7 5 6 7 7 7 7
Wind_Direction
258 264 275 288 296 303 308 314 314 306 282 283 280 293 310 320 334 27 269 269 156 301 289 246 15 352 339 351 13 299 22 359 32 67 111 206 134 251 119 231 203 183 172 211 103 136 276 202 27 141 203 180 149 129
251 252 267 282 288 289 298 310 316 306 276 273 268 279 298 317 333 13 298 319 298 191 251 282 269 251 203 229 246 324 180 337 154 88 52 88 36 47 141 268 338 337 185 177 164 207 257 354 120 76 118 121 111 112
255 251 258 271 285 289 290 303 309 309 288 270 266 270 288 305 314 14 270 298 351 325 303 345 250 273 213 218 178 115 342 1 359 189 151 144 77 106 66 48 352 332 14 97 68 338 100 60 76 90 102 120 132 65
247 247 251 257 272 285 278 294 304 304 294 267 254 256 273 302 309 323 261 273 80 276 276 283 332 309 290 222 197 171 167 11 60 52 82 96 110 99 205 190 105 224 17 336 46 48 78 14 8 18 77 99 105 71
241 245 245 248 261 278 276 289 297 296 286 269 240 244 269 297 314 303 226 234 171 141 260 284 309 255 261 198 188 163 119 107 57 30 54 207 241 68 344 71 4 14 271 98 222 236 119 235 285 76 70 36 39 135
234 238 242 242 251 264 267 277 289 286 272 260 237 244 277 300 350 16 356 2 138 70 116 312 284 293 329 137 138 131 132 120 109 127 214 292 313 102 116 173 217 79 47 336 126 54 83 119 10 18 89 95 125 119
229 232 235 235 242 254 257 272 284 279 265 255 220 243 277 295 89 163 206 240 301 51 33 310 297 261 210 107 47 71 66 131 118 154 174 192 315 87 119 176 298 89 88 64 85 138 83 57 68 339 106 0 290 303
226 226 225 225 234 240 257 268 284 256 253 215 195 225 266 300 296 320 252 239 134 160 285 275 271 332 113 103 90 148 124 53 357 179 17 163 21 108 223 239 177 144 128 130 134 137 160 166 122 274 38 327 12 1
207 213 224 215 219 234 254 271 274 241 198 168 175 96 21 24 270 241 245 161 137 129 292 304 268 262 2 180 124 18 107 110 255 156 218 109 204 195 219 183 190 186 190 179 193 109 82 82 131 341 16 21 45 13
206 207 200 197 208 234 251 274 249 167 146 140 75 61 283 228 255 13 345 53 27 293 221 232 271 276 75 60 244 121 143 193 145 234 104 140 233 254 211 188 176 182 173 168 86 95 107 96 74 79 75 65 58 36
202 186 180 192 215 235 266 229 132 121 87 51 177 248 266 305 51 14 226 141 190 239 228 229 204 238 316 109 162 239 159 109 123 259 140 210 241 223 202 169 185 198 177 215 88 45 67 107 111 83 82 65 54 47
174 168 180 199 220 254 185 140 148 102 171 192 198 261 321 340 333 240 198 229 181 233 241 181 220 178 264 100 74 358 110 51 221 272 146 179 260 206 140 140 161 155 146 93 94 86 67 57 74 81 82 78 66 56
162 176 188 209 245 187 151 153 164 303 337 14 96 271 32 245 126 229 211 213 214 217 244 172 182 153 303 65 17 77 145 214 99 50 184 202 214 141 127 103 106 129 119 119 105 98 97 94 77 81 77 68 81 80
164 175 195 167 135 129 131 142 162 61 59 16 343 13 244 200 246 220 317 305 266 270 335 51 167 148 180 133 170 145 227 116 190 153 227 176 136 133 110 80 81 108 106 112 117 122 118 110 98 88 88 88 83 60
166 136 128 120 128 131 148 178 78 22 105 252 106 224 238 253 258 250 278 311 315 333 358 7 27 99 34 117 213 100 82 230 156 183 162 141 127 116 110 111 108 99 110 109 124 127 122 114 103 103 100 99 98 92
126 129 101 130 129 131 131 124 66 270 266 258 201 256 257 292 292 22 326 318 303 252 180 89 48 81 121 146 119 198 173 196 224 181 128 130 106 128 128 108 116 115 119 121 134 134 126 129 125 134 132 138 127 128
37 58 146 131 130 138 156 89 173 239 254 234 232 210 256 265 267 259 2 311 311 344 85 12 49 332 343 83 149 40 192 194 137 127 135 121 133 122 114 115 111 113 116 118 118 122 123 126 132 141 162 197 185 205
7 134 134 131 120 120 182 243 254 255 261 266 259 287 323 254 266 270 263 252 240 243 163 182 75 281 171 155 201 222 85 60 98 113 108 117 114 114 137 143 124 114 126 138 135 131 132 144 162 188 196 183 185 226
72 135 145 146 3 178 175 235 163 273 242 265 296 282 262 257 246 254 276 273 239 215 114 121 169 184 186 187 143 130 123 139 124 133 147 161 140 146 129 109 113 105 116 123 125 135 154 158 177 156 189 152 189 167
115 114 113 52 22 324 249 171 65 269 280 314 273 259 265 275 281 293 306 237 177 137 45 82 77 331 46 50 67 109 95 91 94 93 73 34 85 93 144 165 159 129 110 101 118 113 112 101 19 70 155 165 142 141
119 135 112 112 253 221 282 153 268 253 276 251 276 243 295 269 239 246 239 3 92 202 169 139 115 104 98 124 144 120 133 102 137 139 160 96 334 50 41 38 107 109 125 149 137 129 137 196 250 261 171 128 119 139
90 65 76 138 330 330 310 206 217 230 218 243 203 208 216 180 93 97 131 58 48 5 69 95 87 103 103 111 157 185 150 121 91 83 65 99 83 55 80 113 96 109 119 147 147 150 186 231 336 44 131 142 116 138
134 131 147 277 62 238 240 165 213 222 236 262 358 72 35 32 356 14 53 20 35 17 58 65 57 70 100 97 84 69 87 95 71 92 91 92 96 89 96 97 103 98 97 96 127 121 108 66 68 66 73 74 116 132
132 239 216 184 199 256 205 209 208 207 147 64 77 83 45 32 354 42 58 11 307 330 43 92 97 61 33 35 69 97 74 87 106 91 97 82 39 356 122 123 100 103 136 142 123 127 125 106 102 79 71 90 106 142
221 258 209 250 208 282 51 45 51 59 77 57 62 48 16 43 35 30 20 340 359 36 27 73 82 109 134 111 11 281 218 127 129 78 345 145 21 100 84 90 85 95 119 92 106 140 166 150 133 113 71 81 78 142
253 200 187 11 37 69 8 36 33 80 76 74 94 146 93 88 55 41 328 303 336 48 38 82 105 83 47 100 117 70 186 150 91 67 353 84 100 131 117 101 81 5 8 111 102 113 177 197 170 182 187 148 114 133
18 345 315 347 87 41 32 20 42 66 63 86 163 89 91 76 76 304 286 278 117 275 153 132 108 123 156 209 258 187 153 111 124 148 154 98 108 122 127 131 140 219 146 93 91 89 82 73 58 81 169 220 247 209
275 344 4 319 20 30 62 45 35 9 348 8 55 40 66 84 205 248 223 233 154 78 28 92 157 130 111 81 62 66 17 27 71 87 66 61 88 132 135 125 152 154 122 115 117 93 106 118 90 56 51 46 10 1
354 322 41 30 47 40 42 62 50 10 356 59 83 68 76 225 181 156 233 171 155 83 5 14 55 98 69 62 66 61 60 63 54 90 76 38 351 331 216 157 166 182 185 178 217 237 253 180 163 118 35 29 327 58
328 31 48 38 47 47 356 110 105 99 69 108 101 50 45 35 32 141 59 44 73 318 76 79 66 71 94 99 81 52 35 80 87 107 95 64 302 326 359 35 51 275 220 225 220 235 268 340 315 204 138 14 53 77
48 51 49 43 22 357 89 94 59 67 80 85 83 103 128 95 358 358 65 52 64 65 76 76 70 86 102 99 116 119 72 332 97 91 102 83 343 358 8 341 353 340 254 51 201 217 223 162 183 110 128 161 179 185
12 42 68 52 352 339 38 66 100 94 94 77 56 64 52 59 33 302 292 69 45 62 157 134 119 143 153 154 153 136 157 155 147 144 114 297 290 317 339 348 344 6 42 61 68 111 133 147 175 177 187 199 211 217
49 31 118 87 12 26 228 97 22 34 63 60 50 104 102 119 170 288 349 46 83 69 84 178 192 165 156 142 143 140 134 152 173 177 175 156 214 279 324 318 360 22 21 11 345 327 270 231 235 209 205 221 237 244